[[{"header":{"parameterUnit":"m.s-1","parameterCategory":1,"la1":30.2991,"la2":30.254,"lo1":-89.0895,"lo2":-89.0444,"dy":0.0017,"dx":0.0017,"nx":28,"ny":28,"refTime":"2024-08-14T03:00:00:Z","depth":0,"parameterNumber":2,"parameterNumberName":"U-component_of_WINDS"},"data":[0,0,0,0,0,0,0,0,0,0,0,0,0,0,0,0,0,0,0,0,0,0,0,0,0,0,0,0,0,0,0,0,0,0,0,0,0,0,0,0,0,0,0,0,0,0,0,0,0,0,0,0,0,0,0,0,0,0,-0.4316,-0.4315,0,-0.4295,-0.4295,-0.4295,-0.4273,-0.4273,-0.4273,-0.4272,-0.4251,-0.425,-0.425,0,0,0,0,0,0,0,0,0,0,0,0,0,-0.4336,-0.4336,-0.4316,-0.4315,-0.4315,-0.4295,-0.4295,-0.4295,-0.4273,-0.4273,-0.4273,-0.4272,-0.4251,-0.425,-0.425,0,0,0,0,0,0,0,0,0,0,0,0,0,-0.4323,-0.4336,-0.4316,-0.4302,-0.4301,-0.4295,-0.4295,-0.4295,-0.4273,-0.4273,-0.4272,-0.4272,-0.4251,-0.4251,-0.425,-0.4256,0,0,-0.4249,-0.4249,0,0,0,0,0,0,0,0,-0.4324,-0.4322,-0.4304,-0.4303,-0.4301,-0.4286,-0.4294,-0.4282,-0.4273,-0.4284,-0.4272,-0.4272,-0.4263,-0.4261,-0.4259,-0.4255,-0.4255,-0.4249,-0.4248,-0.4248,-0.4248,0,0,0,0,0,0,0,-0.4324,-0.4323,-0.4308,-0.4304,-0.4302,-0.4297,-0.4295,-0.4292,-0.4276,-0.4283,-0.4281,-0.4279,-0.4262,-0.4259,-0.4258,-0.4254,-0.4249,-0.4248,-0.4248,-0.4248,-0.4256,-0.4257,0,0,0,0,0,0,-0.4327,-0.4324,-0.4308,-0.4307,-0.4312,-0.4297,-0.4294,-0.4292,-0.4276,-0.4273,-0.4279,-0.4278,-0.426,-0.4258,-0.4257,-0.4264,-0.4248,-0.4248,-0.4248,-0.4256,-0.4256,-0.4257,0,0,0,0,0,0,-0.4328,-0.4326,-0.4309,-0.4315,-0.4312,-0.4297,-0.4294,-0.4291,-0.4288,-0.4274,-0.4271,-0.4279,-0.426,-0.4258,-0.4257,-0.4263,-0.4248,-0.4247,-0.4255,-0.4256,-0.4257,-0.4277,0,0,0,0,0,0,-0.4329,-0.4327,-0.4329,-0.4315,-0.4312,-0.4309,-0.4295,-0.4291,-0.4288,-0.4286,-0.4273,-0.427,-0.4259,-0.4258,-0.4257,-0.4262,-0.4247,-0.4255,-0.4256,-0.4256,-0.4276,-0.4279,-0.4281,0,0,0,0,0,-0.433,-0.4335,-0.4329,-0.4327,-0.4314,-0.431,-0.4308,-0.4295,-0.4288,-0.4291,-0.4281,-0.427,-0.4263,-0.4258,-0.4256,-0.4262,-0.4254,-0.4255,-0.4256,-0.4275,-0.4278,-0.4281,0,0,0,0,0,0,-0.4349,-0.4333,-0.4326,-0.4327,-0.432,-0.4306,-0.4308,-0.4299,-0.4293,-0.4292,-0.4277,-0.4274,-0.4275,-0.4268,-0.4263,-0.4268,-0.4257,-0.4258,-0.4272,-0.4275,-0.4277,-0.4278,-0.4247,0,0,0,0,0,-0.4354,-0.4351,-0.4337,-0.434,-0.4337,-0.4323,-0.4321,-0.4312,-0.4304,-0.43,-0.4291,-0.4283,-0.4279,-0.4277,-0.4272,-0.4275,-0.4272,-0.4278,-0.4281,-0.4283,-0.4284,-0.4285,-0.4288,-0.426,-0.426,-0.426,0,0,-0.4363,-0.4354,-0.4353,-0.4344,-0.4337,-0.4335,-0.4321,-0.4319,-0.4317,-0.43,-0.4299,-0.4292,-0.4282,-0.4284,-0.4284,-0.4278,-0.4291,-0.4284,-0.4286,-0.4285,-0.4287,-0.4289,-0.4292,-0.4261,-0.4261,-0.4261,0,0,-0.4378,-0.4371,-0.4373,-0.4367,-0.4357,-0.4349,-0.4349,-0.4337,-0.4331,-0.433,-0.4318,-0.4316,-0.4309,-0.4303,-0.4299,-0.4314,-0.4304,-0.4313,-0.4325,-0.4327,-0.4329,-0.4331,-0.4337,-0.4339,-0.4314,-0.4314,-0.4314,0,-0.4391,-0.4387,-0.4375,-0.4374,-0.437,-0.4356,-0.4357,-0.4352,-0.4341,-0.4339,-0.4333,-0.4325,-0.4317,-0.4318,-0.4322,-0.4319,-0.4319,-0.4314,-0.433,-0.4332,-0.4333,-0.4338,-0.434,-0.4315,-0.4315,-0.4315,-0.4315,0,-0.4403,-0.4401,-0.4403,-0.4394,-0.4391,-0.4391,-0.4379,-0.4377,-0.4369,-0.4361,-0.4361,-0.4352,-0.4345,-0.4345,-0.4337,-0.4344,-0.4341,-0.4333,-0.4322,-0.4337,-0.4342,-0.4344,-0.4316,-0.4316,-0.4316,-0.4315,0,0,-0.4429,-0.4414,-0.4415,-0.4411,-0.44,-0.4398,-0.4398,-0.4392,-0.4391,-0.4385,-0.4385,-0.438,-0.4373,-0.4368,-0.436,-0.4362,-0.4375,-0.4353,-0.4353,-0.4357,-0.4383,-0.4389,-0.4391,-0.4368,-0.4369,-0.4369,-0.4383,0,-0.4443,-0.4442,-0.4431,-0.4434,-0.4432,-0.4418,-0.4419,-0.4412,-0.4405,-0.4403,-0.4395,-0.4392,-0.4382,-0.438,-0.4381,-0.4373,-0.4379,-0.4372,-0.4368,-0.4368,-0.437,-0.4393,-0.4399,-0.4413,-0.4385,-0.4385,-0.4386,0,-0.4458,-0.4453,-0.4455,-0.4445,-0.4444,-0.4444,-0.4438,-0.4436,-0.4429,-0.4424,-0.442,-0.441,-0.441,-0.44,-0.44,-0.4395,-0.4393,-0.4389,-0.4389,-0.4388,-0.4377,-0.4392,-0.4417,-0.4419,-0.4388,-0.4388,-0.4388,0,-0.4476,-0.447,-0.4471,-0.4468,-0.4456,-0.4457,-0.4452,-0.4444,-0.4442,-0.4437,-0.4435,-0.4431,-0.4428,-0.4425,-0.4414,-0.4408,-0.4415,-0.4405,-0.4411,-0.4411,-0.4412,-0.4412,-0.4437,-0.4412,-0.4412,-0.4412,-0.4412,0,-0.4492,-0.4494,-0.448,-0.448,-0.4482,-0.447,-0.4473,-0.4466,-0.446,-0.4459,-0.4448,-0.4447,-0.4434,-0.4432,-0.4424,-0.4425,-0.4424,-0.442,-0.4418,-0.4421,-0.4421,-0.4419,-0.4417,-0.4413,-0.4412,-0.4412,-0.4412,0,-0.4513,-0.4503,-0.4503,-0.4493,-0.449,-0.4492,-0.4483,-0.4483,-0.4476,-0.4475,-0.4474,-0.4463,-0.446,-0.445,-0.4445,-0.4439,-0.4443,-0.4439,-0.4445,-0.4444,-0.4451,-0.445,-0.4474,-0.4477,-0.4451,-0.4451,-0.4451,0,-0.4523,-0.4525,-0.4514,-0.4513,-0.4509,-0.4507,-0.4505,-0.4494,-0.4492,-0.4484,-0.4485,-0.4482,-0.4478,-0.4475,-0.4466,-0.4462,-0.4458,-0.4467,-0.4457,-0.446,-0.4458,-0.4458,-0.4458,-0.4469,-0.4469,-0.4469,-0.4469,0,-0.4543,-0.4538,-0.4535,-0.4531,-0.4529,-0.4525,-0.452,-0.452,-0.4508,-0.4506,-0.4503,-0.4501,-0.4496,-0.4493,-0.4488,-0.4483,-0.4474,-0.4473,-0.4474,-0.4477,-0.448,-0.4478,-0.4451,-0.4472,-0.4472,-0.4471,-0.4471,-0.4471,-0.4559,-0.4559,-0.4553,-0.455,-0.4545,-0.4542,-0.4541,-0.4535,-0.4532,-0.4527,-0.4521,-0.452,-0.4513,-0.4506,-0.4502,-0.45,-0.4495,-0.4497,-0.4497,-0.4498,-0.45,-0.4481,-0.4499,-0.4499,-0.4499,-0.4499,-0.4499,0,-0.4578,-0.4573,-0.4571,-0.4565,-0.4563,-0.4555,-0.455,-0.4549,-0.4548,-0.4543,-0.454,-0.4537,-0.4534,-0.4526,-0.4523,-0.4523,-0.4519,-0.4523,-0.4522,-0.4521,-0.4504,-0.4503,-0.4526,-0.4526,-0.4526,-0.4526,-0.4526,-0.4526,-0.4587,-0.4588,-0.4583,-0.4582,-0.4577,-0.4575,-0.4573,-0.457,-0.4566,-0.4563,-0.4561,-0.4556,-0.455,-0.4546,-0.4543,-0.4541,-0.454,-0.4545,-0.4541,-0.4525,-0.4522,-0.452,-0.4519,-0.4545,-0.4545,-0.4558,-0.4558,-0.4558]},{"header":{"parameterUnit":"m.s-1","parameterCategory":1,"la1":30.2991,"la2":30.254,"lo1":-89.0895,"lo2":-89.0444,"dy":0.0017,"dx":0.0017,"nx":28,"ny":28,"refTime":"2024-08-14T03:00:00:Z","depth":0,"parameterNumber":3,"parameterNumberName":"V-component_of_WINDS"},"data":[0,0,0,0,0,0,0,0,0,0,0,0,0,0,0,0,0,0,0,0,0,0,0,0,0,0,0,0,0,0,0,0,0,0,0,0,0,0,0,0,0,0,0,0,0,0,0,0,0,0,0,0,0,0,0,0,0,0,2.7298,2.7298,0,2.7332,2.7333,2.7333,2.7395,2.7396,2.7397,2.7398,2.7429,2.7429,2.7429,0,0,0,0,0,0,0,0,0,0,0,0,0,2.7281,2.7281,2.7298,2.7298,2.7299,2.7332,2.7333,2.7333,2.7394,2.7396,2.7397,2.7399,2.7429,2.7429,2.7429,0,0,0,0,0,0,0,0,0,0,0,0,0,2.7299,2.7281,2.7298,2.7333,2.7337,2.7332,2.7333,2.7333,2.7394,2.7396,2.7398,2.7399,2.743,2.7429,2.7429,2.7391,0,0,2.7428,2.7427,0,0,0,0,0,0,0,0,2.7298,2.73,2.7328,2.7331,2.7335,2.7361,2.7338,2.7352,2.7394,2.7372,2.7398,2.74,2.7405,2.7407,2.7409,2.7392,2.7393,2.7427,2.7427,2.7427,2.7427,0,0,0,0,0,0,0,2.7297,2.7298,2.7311,2.7328,2.7332,2.7346,2.7351,2.7341,2.7378,2.7374,2.7379,2.7382,2.7407,2.7409,2.741,2.7394,2.7427,2.7427,2.7427,2.7427,2.7345,2.7343,0,0,0,0,0,0,2.7291,2.7297,2.731,2.7312,2.7321,2.7345,2.735,2.7351,2.7378,2.7384,2.7381,2.7385,2.7409,2.7411,2.7412,2.7367,2.7427,2.7427,2.7426,2.7347,2.7344,2.7342,0,0,0,0,0,0,2.729,2.7291,2.7309,2.7306,2.7309,2.7344,2.7344,2.735,2.7353,2.7383,2.739,2.7376,2.7411,2.7412,2.7395,2.7369,2.7426,2.7426,2.7349,2.7346,2.7343,2.7278,0,0,0,0,0,0,2.7289,2.7291,2.7278,2.7305,2.7309,2.7293,2.7342,2.735,2.7352,2.7358,2.7381,2.7386,2.7412,2.7395,2.7395,2.7369,2.7426,2.7351,2.7347,2.7344,2.7282,2.7273,2.7265,0,0,0,0,0,2.7289,2.7258,2.7277,2.7278,2.7294,2.7291,2.7293,2.7325,2.735,2.7336,2.7356,2.7386,2.7372,2.7393,2.7393,2.7367,2.7353,2.7349,2.7344,2.7286,2.7275,2.7265,0,0,0,0,0,0,2.7225,2.7262,2.7283,2.7261,2.7273,2.7302,2.7285,2.7312,2.7316,2.7321,2.7359,2.7363,2.7341,2.7353,2.7375,2.733,2.7367,2.7363,2.7323,2.7313,2.7304,2.7301,2.7425,0,0,0,0,0,2.7209,2.7205,2.7237,2.7214,2.7219,2.7251,2.7251,2.7274,2.7287,2.7292,2.7311,2.7321,2.7319,2.7317,2.7317,2.7285,2.7289,2.7267,2.7258,2.7251,2.7246,2.7227,2.7217,2.7328,2.7328,2.7328,0,0,2.7174,2.7194,2.7189,2.7201,2.7213,2.7207,2.7255,2.7246,2.7241,2.7291,2.7275,2.7289,2.7303,2.7278,2.7267,2.7287,2.7216,2.7245,2.7239,2.7238,2.7222,2.7211,2.7202,2.7325,2.7325,2.7326,0,0,2.7108,2.7123,2.7105,2.7116,2.7133,2.7155,2.715,2.7175,2.7186,2.7172,2.7208,2.7202,2.7199,2.7206,2.721,2.7145,2.7172,2.7144,2.7098,2.7079,2.7071,2.7063,2.7037,2.7028,2.7139,2.7139,2.7139,0,2.7062,2.7056,2.7092,2.7081,2.7084,2.7129,2.711,2.7118,2.7134,2.7134,2.7156,2.7151,2.7164,2.714,2.7124,2.7126,2.712,2.7141,2.7069,2.7062,2.7055,2.7031,2.7022,2.7135,2.7136,2.7136,2.7137,0,2.6998,2.6992,2.6975,2.699,2.6991,2.6976,2.7008,2.7005,2.7027,2.7046,2.7029,2.7046,2.705,2.7046,2.7068,2.7024,2.7036,2.7063,2.71,2.704,2.7018,2.701,2.713,2.7132,2.7133,2.7134,0,0,2.6892,2.6927,2.6919,2.6926,2.6948,2.6944,2.6929,2.6934,2.6929,2.6938,2.6926,2.6921,2.6946,2.695,2.6973,2.6957,2.6902,2.6986,2.6987,2.6968,2.6852,2.683,2.6819,2.6921,2.6919,2.6918,2.685,0,2.6828,2.6807,2.6839,2.6809,2.6803,2.6846,2.6833,2.6844,2.6861,2.6857,2.6875,2.6871,2.6905,2.6907,2.6894,2.6911,2.6879,2.6917,2.6907,2.6906,2.69,2.6808,2.6785,2.672,2.6842,2.684,2.6839,0,2.6752,2.6758,2.6728,2.675,2.6749,2.6737,2.6742,2.6739,2.6752,2.6765,2.6768,2.6796,2.6782,2.682,2.6799,2.6824,2.6822,2.683,2.6828,2.6826,2.6868,2.6801,2.67,2.6689,2.6827,2.6828,2.6829,0,2.6675,2.6675,2.6657,2.6662,2.6688,2.6678,2.6688,2.6703,2.6703,2.6707,2.6707,2.6709,2.671,2.671,2.6737,2.6762,2.6712,2.6752,2.672,2.6719,2.6706,2.6706,2.66,2.6708,2.6708,2.6708,2.6708,0,2.66,2.6579,2.6623,2.6611,2.6589,2.6624,2.6601,2.6615,2.6627,2.6618,2.6655,2.6645,2.6683,2.6676,2.6697,2.6675,2.6676,2.6684,2.6689,2.668,2.6678,2.6677,2.6681,2.6706,2.6706,2.6707,2.6707,0,2.6509,2.6538,2.652,2.6547,2.6553,2.6535,2.6556,2.6546,2.6565,2.6552,2.6552,2.6581,2.6575,2.6602,2.6601,2.6615,2.6581,2.6595,2.6577,2.6581,2.6546,2.6548,2.6434,2.642,2.6538,2.6537,2.6536,0,2.6458,2.6443,2.6468,2.6465,2.6474,2.6468,2.6468,2.6502,2.65,2.6513,2.65,2.6498,2.6497,2.6485,2.6505,2.6504,2.6517,2.6477,2.6517,2.6506,2.6513,2.6513,2.6511,2.6468,2.6467,2.6466,2.6465,0,2.6364,2.6379,2.6378,2.6382,2.6381,2.6385,2.6392,2.6387,2.6423,2.6419,2.6414,2.6413,2.6412,2.6408,2.6411,2.642,2.6447,2.6452,2.6444,2.6433,2.6422,2.6425,2.6552,2.6454,2.6455,2.6456,2.6457,2.6457,2.6291,2.6279,2.6294,2.6291,2.63,2.6305,2.6296,2.6314,2.631,2.6312,2.6333,2.6323,2.6334,2.6341,2.6346,2.6338,2.6357,2.6346,2.6342,2.6339,2.6332,2.6425,2.6339,2.6339,2.634,2.634,2.634,0,2.6197,2.6209,2.6206,2.6214,2.6211,2.6239,2.6248,2.6243,2.6234,2.6243,2.6242,2.6234,2.623,2.625,2.6248,2.6237,2.625,2.6235,2.6236,2.6237,2.6316,2.6322,2.6225,2.6225,2.6225,2.6225,2.6225,2.6225,2.6148,2.6128,2.6144,2.6128,2.614,2.6132,2.6134,2.6138,2.6145,2.6135,2.6132,2.6146,2.6158,2.6157,2.6154,2.616,2.6156,2.6137,2.6146,2.622,2.6231,2.6242,2.6248,2.6136,2.6136,2.6067,2.6067,2.6066]}]]